AFL1214 UUEE-UWWW

Flight info

Callsign AFL1214
Flight time 1h 27m
Altitude 35000
Route KOGOM3E KOGOM L94 EKPIR M864 IBROT T784 OTKOL T787 OKSUD T778 RUBEK RUBEK2G
Aircraft B738/M-SDE2E3FGHIRWXY/LB1

Departure

Time 2026-05-01 13:48
Airport Sheremetyevo International Airport (UUEE)

Arrival

Time 2026-05-01 15:15
Airport Kurumoch International Airport (UWWW)
Time Latitude Longitude Altitude Speed Heading
2026-05-01 13:16 55.97881 37.41920 638 ft 0 kts 255°
2026-05-01 13:39 55.97885 37.41946 638 ft 2 kts 255°
2026-05-01 13:39 55.97889 37.41974 638 ft 2 kts 255°
2026-05-01 13:39 55.97894 37.42003 641 ft 2 kts 255°
2026-05-01 13:40 55.97901 37.42029 639 ft 2 kts 199°
2026-05-01 13:40 55.97915 37.42031 639 ft 1 kts 168°
2026-05-01 13:40 55.97918 37.42030 639 ft 0 kts 167°
2026-05-01 13:43 55.97914 37.42032 639 ft 2 kts 167°
2026-05-01 13:43 55.97882 37.42046 643 ft 8 kts 165°
2026-05-01 13:44 55.97818 37.42077 641 ft 11 kts 165°
2026-05-01 13:44 55.97745 37.42112 638 ft 11 kts 165°
2026-05-01 13:44 55.97688 37.42159 642 ft 9 kts 117°
2026-05-01 13:44 55.97697 37.42267 641 ft 9 kts 76°
2026-05-01 13:45 55.97713 37.42373 641 ft 9 kts 75°
2026-05-01 13:45 55.97728 37.42476 640 ft 9 kts 75°
2026-05-01 13:45 55.97744 37.42583 638 ft 9 kts 75°
2026-05-01 13:45 55.97761 37.42694 642 ft 9 kts 75°
2026-05-01 13:46 55.97753 37.42784 640 ft 7 kts 147°
2026-05-01 13:46 55.97707 37.42809 641 ft 7 kts 163°
2026-05-01 13:46 55.97656 37.42832 637 ft 8 kts 167°
2026-05-01 13:46 55.97606 37.42824 643 ft 8 kts 230°
2026-05-01 13:47 55.97591 37.42743 638 ft 6 kts 256°
2026-05-01 13:47 55.97552 37.42487 640 ft 54 kts 255°
2026-05-01 13:47 55.97391 37.41409 641 ft 123 kts 255°
2026-05-01 13:47 55.97117 37.39609 771 ft 166 kts 254°
2026-05-01 13:48 55.96803 37.37618 1516 ft 168 kts 256°
2026-05-01 13:48 55.96501 37.35712 2607 ft 154 kts 256°
2026-05-01 13:48 55.96205 37.33861 3405 ft 160 kts 256°
2026-05-01 13:48 55.95900 37.31861 3978 ft 179 kts 256°
2026-05-01 13:49 55.95543 37.29542 4337 ft 206 kts 256°
2026-05-01 13:49 55.95135 37.26953 4651 ft 228 kts 255°
2026-05-01 13:49 55.94679 37.24103 5055 ft 250 kts 256°
2026-05-01 13:49 55.94201 37.21056 5431 ft 257 kts 256°
2026-05-01 13:50 55.93715 37.17963 5833 ft 262 kts 256°
2026-05-01 13:50 55.93221 37.14825 6224 ft 264 kts 256°
2026-05-01 13:50 55.92723 37.11674 6627 ft 264 kts 256°
2026-05-01 13:50 55.92223 37.08518 7018 ft 265 kts 256°
2026-05-01 13:51 55.91722 37.05342 7390 ft 266 kts 258°
2026-05-01 13:51 55.91653 37.02133 7749 ft 263 kts 285°
2026-05-01 13:51 55.92434 36.99227 8173 ft 261 kts 310°
2026-05-01 13:51 55.93793 36.97084 8619 ft 262 kts 325°
2026-05-01 13:52 55.95312 36.95221 9051 ft 267 kts 326°
2026-05-01 13:52 55.96858 36.93341 9478 ft 271 kts 327°
2026-05-01 13:52 55.98571 36.91925 9859 ft 273 kts 350°
2026-05-01 13:52 56.00455 36.91998 10275 ft 274 kts 13°
2026-05-01 13:53 56.02191 36.93380 10667 ft 274 kts 31°
2026-05-01 13:53 56.05350 36.97132 11572 ft 270 kts 32°
2026-05-01 13:53 56.06891 36.98963 12033 ft 269 kts 32°
2026-05-01 13:54 56.08454 37.00804 12498 ft 268 kts 32°
2026-05-01 13:54 56.10013 37.02633 12980 ft 268 kts 32°
2026-05-01 13:54 56.11445 37.04791 13347 ft 275 kts 50°
2026-05-01 13:54 56.12355 37.07862 13635 ft 288 kts 69°
2026-05-01 13:55 56.12885 37.11444 13942 ft 305 kts 72°
2026-05-01 13:55 56.13394 37.15170 14163 ft 308 kts 72°
2026-05-01 13:55 56.13908 37.18900 14366 ft 308 kts 72°
2026-05-01 13:55 56.14429 37.22626 14574 ft 308 kts 72°
2026-05-01 13:56 56.14940 37.26371 14782 ft 310 kts 76°
2026-05-01 13:56 56.14883 37.30275 14984 ft 321 kts 99°
2026-05-01 13:56 56.13963 37.33968 15225 ft 332 kts 121°
2026-05-01 13:56 56.12303 37.36888 15680 ft 342 kts 143°
2026-05-01 13:57 56.10185 37.38883 16234 ft 353 kts 150°
2026-05-01 13:57 56.08668 37.40141 16597 ft 358 kts 151°
2026-05-01 13:57 56.05627 37.42587 17350 ft 363 kts 151°
2026-05-01 13:57 56.03318 37.44464 17917 ft 365 kts 150°
2026-05-01 13:58 56.01004 37.46382 18497 ft 367 kts 150°
2026-05-01 13:58 55.98690 37.48316 19012 ft 368 kts 149°
2026-05-01 13:58 55.96402 37.50387 19506 ft 366 kts 139°
2026-05-01 13:58 55.94605 37.53507 20022 ft 358 kts 118°
2026-05-01 13:59 55.93505 37.57327 20653 ft 347 kts 100°
2026-05-01 13:59 55.92973 37.61480 21325 ft 343 kts 94°
2026-05-01 13:59 55.92550 37.65678 21955 ft 345 kts 94°
2026-05-01 13:59 55.92114 37.69924 22580 ft 348 kts 94°
2026-05-01 14:00 55.91600 37.74168 23197 ft 356 kts 102°
2026-05-01 14:00 55.90524 37.78229 23798 ft 367 kts 111°
2026-05-01 14:00 55.89261 37.82204 24285 ft 371 kts 112°
2026-05-01 14:00 55.87968 37.86205 24738 ft 374 kts 112°
2026-05-01 14:01 55.86671 37.90246 25209 ft 377 kts 111°
2026-05-01 14:01 55.85374 37.94327 25665 ft 379 kts 111°
2026-05-01 14:01 55.84079 37.98437 26123 ft 382 kts 111°
2026-05-01 14:01 55.82783 38.02565 26668 ft 382 kts 110°
2026-05-01 14:02 55.81486 38.06683 27285 ft 380 kts 110°
2026-05-01 14:02 55.80635 38.09390 27692 ft 378 kts 108°
2026-05-01 14:02 55.79771 38.13561 28193 ft 360 kts 91°
2026-05-01 14:02 55.79604 38.17895 28746 ft 347 kts 80°
2026-05-01 14:03 55.79707 38.22145 29350 ft 343 kts 78°
2026-05-01 14:03 55.79850 38.26427 29493 ft 353 kts 78°
2026-05-01 14:03 55.79981 38.30852 29606 ft 364 kts 79°
2026-05-01 14:03 55.80090 38.35403 29701 ft 374 kts 79°
2026-05-01 14:04 55.80761 38.44591 29863 ft 378 kts 66°
2026-05-01 14:04 55.82474 38.53706 30039 ft 394 kts 66°
2026-05-01 14:05 55.84198 38.63152 30224 ft 408 kts 66°
2026-05-01 14:05 55.85048 38.67918 30386 ft 412 kts 66°
2026-05-01 14:05 55.85948 38.72757 30622 ft 411 kts 64°
2026-05-01 14:06 55.87083 38.77423 30908 ft 409 kts 60°
2026-05-01 14:06 55.88334 38.81967 31164 ft 409 kts 59°
2026-05-01 14:06 55.89611 38.86510 31388 ft 411 kts 59°
2026-05-01 14:06 55.90878 38.91091 31639 ft 413 kts 60°
2026-05-01 14:07 55.92126 38.95710 31894 ft 414 kts 60°
2026-05-01 14:07 55.93361 39.00357 32132 ft 415 kts 60°
2026-05-01 14:07 55.94594 39.05030 32360 ft 417 kts 61°
2026-05-01 14:08 55.96637 39.14784 32813 ft 429 kts 77°
2026-05-01 14:08 55.96952 39.20101 33088 ft 432 kts 80°
2026-05-01 14:08 55.97201 39.25465 33317 ft 434 kts 80°
2026-05-01 14:08 55.97448 39.30836 33535 ft 435 kts 80°
2026-05-01 14:09 55.97709 39.36231 33783 ft 436 kts 80°
2026-05-01 14:09 55.97980 39.41548 34024 ft 436 kts 80°
2026-05-01 14:09 55.98263 39.46941 34242 ft 437 kts 80°
2026-05-01 14:09 55.98551 39.52359 34417 ft 439 kts 80°
2026-05-01 14:10 55.98838 39.57806 34591 ft 440 kts 80°
2026-05-01 14:10 55.99124 39.63258 34781 ft 441 kts 79°
2026-05-01 14:10 55.99791 39.68555 34938 ft 434 kts 65°
2026-05-01 14:10 56.01077 39.73414 35157 ft 432 kts 62°
2026-05-01 14:11 56.02175 39.78451 35179 ft 439 kts 70°
2026-05-01 14:11 56.03167 39.89281 35202 ft 445 kts 84°
2026-05-01 14:11 56.03241 39.94751 35195 ft 445 kts 85°
2026-05-01 14:12 56.03316 40.05805 35194 ft 443 kts 85°
2026-05-01 14:12 56.03416 40.16798 35198 ft 442 kts 85°
2026-05-01 14:13 56.03541 40.27784 35197 ft 442 kts 85°
2026-05-01 14:13 56.03665 40.38780 35196 ft 442 kts 85°
2026-05-01 14:14 56.03779 40.49727 35200 ft 444 kts 85°
2026-05-01 14:14 56.03882 40.60794 35196 ft 446 kts 85°
2026-05-01 14:15 56.03977 40.71908 35196 ft 448 kts 85°
2026-05-01 14:15 56.04057 40.83061 35197 ft 449 kts 85°
2026-05-01 14:16 56.04123 40.94276 35193 ft 451 kts 86°
2026-05-01 14:16 56.04180 41.05431 35192 ft 452 kts 86°
2026-05-01 14:17 56.04228 41.16691 35191 ft 453 kts 86°
2026-05-01 14:17 56.04266 41.27965 35191 ft 453 kts 86°
2026-05-01 14:18 56.04294 41.39247 35191 ft 453 kts 86°
2026-05-01 14:18 56.04309 41.48628 35185 ft 453 kts 86°
2026-05-01 14:19 56.04319 41.61821 35185 ft 453 kts 87°
2026-05-01 14:19 56.04316 41.73099 35186 ft 453 kts 87°
2026-05-01 14:20 56.04292 41.89947 35184 ft 453 kts 87°
2026-05-01 14:21 56.04264 42.01235 35182 ft 454 kts 87°
2026-05-01 14:21 56.04225 42.12526 35181 ft 454 kts 88°
2026-05-01 14:22 56.04148 42.29465 35177 ft 454 kts 88°
2026-05-01 14:22 56.04085 42.40784 35177 ft 455 kts 88°
2026-05-01 14:23 56.03399 42.52053 35176 ft 460 kts 104°
2026-05-01 14:23 56.00669 42.62445 35176 ft 468 kts 122°
2026-05-01 14:24 55.96929 42.71881 35173 ft 469 kts 123°
2026-05-01 14:24 55.93128 42.81369 35169 ft 470 kts 123°
2026-05-01 14:25 55.89372 42.90915 35169 ft 471 kts 123°
2026-05-01 14:25 55.85622 43.00480 35172 ft 471 kts 123°
2026-05-01 14:26 55.79964 43.14828 35175 ft 472 kts 123°
2026-05-01 14:27 55.76567 43.24776 35179 ft 470 kts 117°
2026-05-01 14:27 55.73378 43.34939 35162 ft 470 kts 117°
2026-05-01 14:28 55.68532 43.50084 35163 ft 471 kts 118°
2026-05-01 14:28 55.65289 43.60066 35158 ft 471 kts 118°
2026-05-01 14:29 55.62014 43.70110 35154 ft 471 kts 118°
2026-05-01 14:30 55.59120 43.86470 35141 ft 466 kts 92°
2026-05-01 14:30 55.58990 43.92183 35158 ft 465 kts 90°
2026-05-01 14:31 55.58751 44.09378 35137 ft 466 kts 90°
2026-05-01 14:31 55.58533 44.20844 35136 ft 467 kts 91°
2026-05-01 14:32 55.58279 44.32263 35133 ft 468 kts 91°
2026-05-01 14:32 55.58010 44.43758 35132 ft 469 kts 91°
2026-05-01 14:33 55.57731 44.55279 35129 ft 469 kts 91°
2026-05-01 14:33 55.57443 44.66822 35128 ft 470 kts 91°
2026-05-01 14:34 55.57140 44.78387 35125 ft 471 kts 93°
2026-05-01 14:34 55.56547 44.84080 35116 ft 473 kts 108°
2026-05-01 14:34 55.55196 44.89292 35133 ft 473 kts 121°
2026-05-01 14:34 55.53181 44.93878 35118 ft 474 kts 136°
2026-05-01 14:35 55.50760 44.97836 35134 ft 474 kts 137°
2026-05-01 14:35 55.45837 45.05619 35118 ft 476 kts 138°
2026-05-01 14:36 55.40923 45.13453 35114 ft 477 kts 137°
2026-05-01 14:36 55.36034 45.21343 35115 ft 477 kts 137°
2026-05-01 14:37 55.31145 45.29246 35111 ft 478 kts 137°
2026-05-01 14:37 55.26243 45.37144 35107 ft 478 kts 138°
2026-05-01 14:38 55.21340 45.45010 35110 ft 477 kts 138°
2026-05-01 14:38 55.16435 45.52848 35100 ft 477 kts 138°
2026-05-01 14:39 55.11559 45.60613 35102 ft 477 kts 138°
2026-05-01 14:39 55.06646 45.68410 35103 ft 476 kts 138°
2026-05-01 14:40 55.01740 45.76170 35099 ft 475 kts 139°
2026-05-01 14:40 54.96866 45.83852 35096 ft 475 kts 139°
2026-05-01 14:41 54.91966 45.91551 35097 ft 474 kts 139°
2026-05-01 14:41 54.87063 45.99227 35099 ft 474 kts 139°
2026-05-01 14:42 54.82158 46.06885 35097 ft 474 kts 139°
2026-05-01 14:42 54.77211 46.14439 35093 ft 473 kts 141°
2026-05-01 14:43 54.72097 46.21515 35095 ft 473 kts 143°
2026-05-01 14:43 54.66913 46.28531 35092 ft 473 kts 143°
2026-05-01 14:44 54.61745 46.35578 35094 ft 474 kts 143°
2026-05-01 14:44 54.53983 46.46197 35091 ft 475 kts 143°
2026-05-01 14:45 54.46246 46.56734 35093 ft 475 kts 143°
2026-05-01 14:46 54.41059 46.63767 35095 ft 475 kts 143°
2026-05-01 14:46 54.33256 46.74307 35097 ft 476 kts 143°
2026-05-01 14:47 54.28068 46.81363 35088 ft 477 kts 139°
2026-05-01 14:48 54.22370 46.95254 35083 ft 482 kts 113°
2026-05-01 14:48 54.18760 47.11294 34526 ft 491 kts 112°
2026-05-01 14:49 54.16317 47.22126 33087 ft 488 kts 113°
2026-05-01 14:49 54.13830 47.32891 31555 ft 487 kts 114°
2026-05-01 14:50 54.12151 47.40073 30510 ft 487 kts 114°
2026-05-01 14:50 54.09218 47.52545 28311 ft 486 kts 114°
2026-05-01 14:51 54.07542 47.59653 27400 ft 477 kts 114°
2026-05-01 14:51 54.05504 47.68270 26336 ft 467 kts 114°
2026-05-01 14:52 54.03098 47.78397 25092 ft 455 kts 114°
2026-05-01 14:52 54.01918 47.83343 24593 ft 447 kts 114°
2026-05-01 14:52 53.99595 47.93051 23366 ft 438 kts 114°
2026-05-01 14:53 53.98452 47.97811 22700 ft 433 kts 114°
2026-05-01 14:53 53.97321 48.02512 22103 ft 427 kts 114°
2026-05-01 14:53 53.96217 48.07087 21524 ft 421 kts 114°
2026-05-01 14:53 53.95111 48.11667 20934 ft 416 kts 114°
2026-05-01 14:54 53.94014 48.16193 20342 ft 412 kts 114°
2026-05-01 14:54 53.92926 48.20678 19774 ft 409 kts 113°
2026-05-01 14:54 53.91847 48.25116 19196 ft 405 kts 113°
2026-05-01 14:54 53.90775 48.29515 18646 ft 402 kts 113°
2026-05-01 14:55 53.89709 48.33881 18038 ft 399 kts 113°
2026-05-01 14:55 53.88649 48.38213 17434 ft 396 kts 113°
2026-05-01 14:55 53.87599 48.42499 16891 ft 392 kts 113°
2026-05-01 14:55 53.86557 48.46739 16332 ft 388 kts 113°
2026-05-01 14:56 53.85526 48.50932 15780 ft 384 kts 113°
2026-05-01 14:56 53.84498 48.55102 15235 ft 381 kts 113°
2026-05-01 14:56 53.83480 48.59226 14698 ft 378 kts 113°
2026-05-01 14:56 53.82466 48.63323 14158 ft 376 kts 113°
2026-05-01 14:57 53.81458 48.67390 13593 ft 373 kts 113°
2026-05-01 14:57 53.79475 48.75376 13091 ft 361 kts 113°
2026-05-01 14:57 53.78512 48.79242 13066 ft 352 kts 113°
2026-05-01 14:58 53.77567 48.83027 12873 ft 347 kts 113°
2026-05-01 14:58 53.76625 48.86739 12554 ft 341 kts 115°
2026-05-01 14:58 53.75490 48.90209 11908 ft 345 kts 122°
2026-05-01 14:58 53.74172 48.93631 11276 ft 348 kts 124°
2026-05-01 14:59 53.72835 48.96969 11077 ft 337 kts 124°
2026-05-01 14:59 53.71545 49.00201 10975 ft 325 kts 124°
2026-05-01 14:59 53.70312 49.03326 10840 ft 314 kts 123°
2026-05-01 14:59 53.69133 49.06349 10736 ft 304 kts 123°
2026-05-01 15:00 53.66900 49.12121 10553 ft 284 kts 123°
2026-05-01 15:00 53.65831 49.14891 10368 ft 279 kts 123°
2026-05-01 15:00 53.64775 49.17629 10076 ft 278 kts 123°
2026-05-01 15:01 53.63722 49.20361 9793 ft 277 kts 123°
2026-05-01 15:01 53.62677 49.23067 9489 ft 275 kts 122°
2026-05-01 15:01 53.61632 49.25772 9170 ft 274 kts 123°
2026-05-01 15:01 53.60604 49.28434 8797 ft 276 kts 122°
2026-05-01 15:02 53.59549 49.31163 8347 ft 280 kts 122°
2026-05-01 15:02 53.58827 49.33025 8049 ft 282 kts 122°
2026-05-01 15:02 53.57394 49.36718 7469 ft 286 kts 122°
2026-05-01 15:02 53.56301 49.39532 7034 ft 289 kts 122°
2026-05-01 15:03 53.55196 49.42373 6615 ft 291 kts 122°
2026-05-01 15:03 53.54095 49.45204 6343 ft 287 kts 122°
2026-05-01 15:03 53.53011 49.47983 6182 ft 279 kts 122°
2026-05-01 15:03 53.51964 49.50670 6043 ft 271 kts 122°
2026-05-01 15:04 53.50947 49.53277 5908 ft 263 kts 122°
2026-05-01 15:04 53.49957 49.55810 5778 ft 256 kts 122°
2026-05-01 15:04 53.48983 49.58303 5640 ft 255 kts 122°
2026-05-01 15:04 53.48008 49.60796 5540 ft 256 kts 121°
2026-05-01 15:05 53.47028 49.63301 5420 ft 257 kts 122°
2026-05-01 15:05 53.46042 49.65818 5311 ft 258 kts 122°
2026-05-01 15:05 53.45053 49.68339 5197 ft 259 kts 122°
2026-05-01 15:05 53.44059 49.70870 5081 ft 260 kts 122°
2026-05-01 15:06 53.43063 49.73407 4975 ft 261 kts 121°
2026-05-01 15:06 53.42070 49.75931 4863 ft 263 kts 121°
2026-05-01 15:06 53.41060 49.78495 4738 ft 263 kts 121°
2026-05-01 15:06 53.40060 49.81032 4618 ft 260 kts 121°
2026-05-01 15:07 53.39070 49.83544 4479 ft 257 kts 121°
2026-05-01 15:07 53.38086 49.86033 4362 ft 255 kts 121°
2026-05-01 15:07 53.37106 49.88509 4243 ft 254 kts 121°
2026-05-01 15:07 53.36126 49.90991 4124 ft 256 kts 120°
2026-05-01 15:08 53.35465 49.93727 4035 ft 253 kts 99°
2026-05-01 15:08 53.35117 49.96556 4028 ft 250 kts 99°
2026-05-01 15:08 53.34753 49.99396 4020 ft 249 kts 99°
2026-05-01 15:08 53.34379 50.02236 4023 ft 250 kts 100°
2026-05-01 15:09 53.33999 50.05054 3996 ft 244 kts 100°
2026-05-01 15:09 53.33631 50.07752 4001 ft 231 kts 100°
2026-05-01 15:09 53.33282 50.10306 3983 ft 219 kts 100°
2026-05-01 15:09 53.32994 50.12818 4015 ft 220 kts 87°
2026-05-01 15:10 53.33288 50.15259 4014 ft 209 kts 69°
2026-05-01 15:10 53.34243 50.19644 3503 ft 196 kts 67°
2026-05-01 15:10 53.34708 50.21771 3177 ft 193 kts 66°
2026-05-01 15:11 53.35178 50.23886 2852 ft 189 kts 62°
2026-05-01 15:11 53.37219 50.25494 2272 ft 169 kts 345°
2026-05-01 15:11 53.38307 50.24876 2069 ft 161 kts 342°
2026-05-01 15:12 53.39377 50.24260 1997 ft 163 kts 342°
2026-05-01 15:12 53.41428 50.23086 1939 ft 146 kts 342°
2026-05-01 15:12 53.42377 50.22522 1800 ft 141 kts 342°
2026-05-01 15:13 53.45105 50.20887 1304 ft 140 kts 342°
2026-05-01 15:14 53.46934 50.19793 944 ft 139 kts 341°
2026-05-01 15:14 53.47842 50.19248 766 ft 138 kts 341°
2026-05-01 15:14 53.49671 50.18149 446 ft 139 kts 341°
2026-05-01 15:15 53.50861 50.17440 428 ft 37 kts 340°
2026-05-01 15:15 53.51297 50.17183 448 ft 29 kts 340°
2026-05-01 15:16 53.51441 50.17062 448 ft 10 kts 281°
2026-05-01 15:16 53.51379 50.16839 431 ft 11 kts 240°
2026-05-01 15:17 53.51306 50.16620 439 ft 11 kts 241°
2026-05-01 15:18 53.51174 50.16206 443 ft 13 kts 242°
2026-05-01 15:18 53.51136 50.16089 439 ft 10 kts 240°
2026-05-01 15:19 53.51164 50.15943 439 ft 5 kts 332°
2026-05-01 15:19 53.51172 50.15936 446 ft 0 kts 332°